Terminal Aerodrome Forecast
Issued by NWS Portland, ME

Home | Current Version | Previous Version | Text Only | Print | Product List | Glossary On
Versions: 1 2 3 4 5 6 7 8 9 10 11 12 13 14 15 16 17 18 19
000
FTUS41 KGYX 170211 AAB
TAFCON
TAF AMD
KCON 170211Z 1702/1724 00000KT 1/4SM FG VV002
     FM171300 00000KT P6SM SKC=

USA.gov is the U.S. government's official web portal to all federal, state and local government web resources and services.